Dewpoint
31 26 25 25 25 23 23 21 24 25 24 25 27 26 24 23 24 27 26 26 25 24 24 25 25 24 24 24 28 28 26 26 25 25 26 26 26 26 26 26 26 25 24 29 29 27 28 28 27 28 28 29 29 27 28 30 31 32 33 35 35 36 37 37 38 38 37 36 35 34 33 32 32 32 32 31 31 31 32 33 34 35 35 37 38 38
28 27 26 26 25 23 23 22 21 23 24 23 25 25 23 27 23 25 25 25 25 25 24 22 22 23 23 23 28 29 26 25 26 25 25 25 26 26 26 26 26 26 29 28 26 26 26 27 28 28 28 29 27 27 27 28 30 31 32 33 34 35 36 36 36 36 35 35 34 32 32 31 31 30 30 30 29 30 31 31 32 33 34 35 36 37
25 24 26 26 24 23 22 21 20 20 23 24 22 24 23 22 25 25 26 26 25 25 24 22 22 23 24 26 28 28 28 28 28 26 25 25 26 26 26 26 25 26 26 25 24 26 24 27 27 27 27 27 27 27 26 28 29 30 31 32 33 34 35 36 35 35 34 35 35 33 32 30 29 29 29 28 28 28 27 28 29 30 32 33 33 35
23 25 24 24 24 23 24 21 20 23 22 22 24 23 21 25 25 25 27 26 24 24 23 23 23 24 25 27 26 26 27 27 27 28 28 28 26 26 26 26 26 25 26 24 24 24 24 24 24 25 26 26 27 26 26 26 27 28 29 30 31 32 33 35 35 34 33 33 32 32 31 30 29 27 27 25 25 24 24 24 25 26 28 30 31 32
24 27 27 24 24 23 23 23 22 21 21 25 24 23 22 25 24 24 24 26 26 26 25 22 24 24 24 24 25 26 27 25 26 25 25 27 28 28 27 27 28 25 25 26 24 24 24 24 24 24 26 25 25 26 26 26 25 25 27 29 30 30 31 32 34 34 33 32 31 30 30 29 27 25 23 22 20 20 21 21 22 23 25 25 26 28
24 27 27 24 25 23 24 23 24 25 22 25 27 23 21 22 22 25 26 26 25 26 27 22 23 22 23 23 24 26 25 24 26 24 24 25 25 26 24 25 26 26 27 26 25 25 25 24 24 24 25 25 25 25 26 25 24 24 25 26 28 29 30 30 31 32 32 31 31 29 26 22 21 20 21 19 18 18 18 19 21 22 23 24 24 25
25 29 28 27 26 26 25 24 27 26 25 26 27 26 22 23 25 26 25 26 23 22 25 22 21 19 22 22 23 25 25 25 25 25 24 24 24 25 25 26 25 25 25 26 26 25 24 24 24 23 24 24 24 24 25 24 23 23 24 25 26 27 27 30 29 30 28 26 24 23 21 20 18 17 19 20 20 19 18 19 19 20 22 23 23 23
29 29 29 29 27 27 26 25 27 26 27 27 29 28 26 26 27 27 26 27 25 27 28 24 21 18 19 22 25 25 25 25 25 24 24 24 24 24 24 25 26 26 26 26 24 25 25 25 24 22 23 23 23 24 24 23 23 22 21 22 23 24 24 25 26 26 25 22 21 21 21 20 18 18 18 19 18 20 19 18 19 19 19 21 22 23
30 29 28 28 28 28 27 29 29 28 28 28 29 28 27 26 27 27 27 26 25 22 24 24 26 21 20 23 24 24 23 23 24 24 24 24 24 24 24 25 26 26 26 26 25 24 25 25 24 24 22 22 22 24 24 22 22 22 21 21 20 20 21 21 23 22 22 21 20 19 19 19 19 19 19 19 19 18 18 18 18 18 18 19 21 22
28 29 29 30 29 28 29 29 28 29 29 29 27 27 26 26 26 26 25 24 21 19 20 21 23 19 21 25 22 24 23 22 23 24 23 23 23 24 24 24 25 26 26 26 26 26 26 26 25 25 22 20 22 23 24 21 21 21 21 20 19 19 20 20 20 20 20 20 18 17 18 19 18 17 17 17 17 18 18 18 18 18 18 19 19 20
28 33 32 30 29 30 29 28 29 28 28 28 27 25 26 24 23 23 22 20 18 15 21 22 22 21 19 24 22 23 24 23 24 24 24 23 24 24 24 24 25 25 25 25 25 25 25 25 24 23 20 20 21 22 21 22 21 20 20 18 18 18 19 19 20 20 20 20 18 18 19 19 19 19 18 17 17 17 17 17 18 18 18 18 19 19
28 28 28 28 31 28 28 27 28 28 28 27 25 24 26 25 18 18 12 19 16 15 16 20 22 21 19 20 23 23 23 24 24 23 23 22 23 23 24 24 24 25 25 25 25 23 23 21 21 20 19 19 19 19 20 20 20 20 19 17 17 18 19 19 19 20 20 20 20 20 19 19 19 19 19 17 18 18 18 18 17 17 17 16 18 18
27 28 29 28 33 28 28 28 26 28 26 27 26 26 23 16 14 14 13 15 15 17 19 21 21 20 20 22 21 21 22 23 24 24 23 23 22 23 23 24 24 25 25 25 24 24 23 21 20 18 18 19 18 19 19 19 20 19 18 17 17 18 19 19 19 19 19 20 20 20 20 20 19 19 19 19 19 19 18 17 17 17 16 17 18 17
28 28 28 28 28 30 29 27 25 26 25 26 25 25 21 16 15 11 10 6 13 16 18 19 20 19 21 20 23 22 22 24 24 24 25 23 23 23 23 24 24 25 25 24 24 24 24 22 22 21 19 18 19 19 20 21 20 19 19 18 18 19 20 20 19 20 20 20 20 20 20 20 20 20 20 19 19 19 19 19 19 18 17 18 18 18
21 23 27 28 28 30 28 28 28 27 25 25 27 26 25 19 13 13 8 13 16 16 16 18 15 16 18 20 23 23 23 23 23 23 24 25 25 24 23 24 24 24 24 24 24 24 24 24 23 22 21 20 19 19 20 19 19 20 20 20 19 19 20 20 20 21 21 21 21 21 21 21 21 21 21 20 21 20 19 19 19 19 19 18 19 18
27 26 26 28 28 28 29 29 28 27 26 25 26 27 23 24 22 16 14 12 10 14 14 14 17 20 20 22 25 23 22 22 24 24 25 25 23 23 23 23 23 23 23 24 24 24 24 25 25 23 21 20 19 19 20 19 20 21 20 20 20 20 21 22 21 21 21 21 21 22 22 22 23 23 22 22 22 20 20 20 20 20 20 20 19 20
23 23 27 27 27 27 28 27 26 28 25 26 26 23 26 27 23 17 16 15 13 14 19 11 19 23 24 22 23 23 22 22 22 23 24 24 23 23 22 23 22 23 23 24 24 24 24 25 25 22 21 20 20 20 20 20 21 20 21 21 20 21 21 21 21 20 20 20 20 21 21 21 22 21 20 20 21 21 21 21 20 20 21 21 20 20
24 23 27 27 27 27 27 27 27 27 29 26 23 26 28 28 26 22 17 12 6 15 17 17 17 18 19 20 22 22 22 22 22 22 23 24 23 22 22 23 23 23 23 23 24 24 24 25 24 23 21 20 20 19 20 21 21 22 22 21 21 20 20 20 19 19 19 19 18 19 20 20 21 21 21 21 21 21 21 21 20 20 20 20 21 20
27 22 25 27 27 27 28 27 26 27 28 26 26 29 26 19 19 22 18 16 14 12 14 16 19 19 20 21 21 21 22 22 22 22 22 23 23 23 22 22 22 23 23 23 23 24 25 25 24 22 20 21 20 21 20 21 22 23 21 21 20 20 20 20 20 19 19 18 19 19 18 18 19 19 20 21 21 21 21 20 20 20 20 21 20 19
26 23 24 28 26 27 27 27 25 25 27 28 28 26 27 24 20 18 22 18 18 14 12 18 18 19 22 21 21 21 22 23 22 22 22 23 23 23 22 22 22 22 22 22 23 24 25 25 23 21 19 20 20 20 21 22 23 21 22 22 21 22 21 20 19 17 16 17 19 19 17 17 19 18 19 19 19 18 19 20 19 19 18 20 20 18
25 26 20 26 27 26 24 26 26 25 25 24 25 24 25 22 25 25 22 21 18 12 13 16 18 19 23 24 21 21 21 23 22 22 23 23 23 23 23 23 22 22 22 22 23 24 24 25 24 21 20 21 21 22 23 23 21 21 22 21 21 19 18 16 15 15 15 14 13 14 13 14 14 15 15 15 15 15 17 19 20 18 18 17 17 17
24 25 23 25 24 24 25 28 27 27 26 25 25 24 25 24 21 20 21 24 18 17 17 15 18 20 25 24 23 23 23 23 23 23 24 23 23 24 24 23 22 22 21 22 23 23 24 24 24 22 21 22 21 22 22 23 21 21 20 20 19 18 16 15 15 14 14 13 12 13 13 14 14 14 14 14 14 15 15 16 17 17 15 15 16 16
29 28 25 22 25 25 27 29 29 28 27 26 27 26 26 25 25 21 20 20 18 21 20 18 17 22 27 26 26 25 25 24 23 24 23 24 23 23 23 23 23 22 22 22 22 23 24 24 24 22 20 21 21 22 22 23 21 21 19 19 18 16 15 15 15 14 14 13 13 13 14 14 13 13 13 14 14 14 14 15 16 17 15 15 15 15
33 25 21 24 26 26 27 28 28 29 28 27 27 27 26 24 25 24 23 22 22 19 20 17 19 23 24 26 25 25 24 24 24 23 23 22 23 23 22 22 21 21 21 22 22 23 24 24 24 23 21 21 22 22 22 22 21 20 20 18 16 14 14 14 15 15 13 13 13 14 13 13 13 13 13 13 14 14 14 15 15 16 15 15 14 13
26 29 26 19 19 22 25 27 27 28 28 27 25 26 26 26 24 22 21 20 19 21 22 22 20 23 27 27 24 21 21 21 21 21 22 23 22 22 22 22 21 21 21 21 22 22 23 24 24 24 22 21 22 22 22 22 21 20 19 17 15 13 14 13 15 14 12 12 13 13 13 13 13 13 14 14 14 14 14 14 14 15 14 13 12 13
29 29 27 23 22 20 20 21 23 25 27 28 27 26 26 26 24 23 22 19 21 21 23 21 22 24 26 24 24 24 21 21 20 21 22 22 22 22 22 22 21 21 21 21 21 22 22 23 24 24 23 22 22 22 22 22 21 19 18 17 15 12 13 13 14 13 12 12 12 13 13 13 13 14 14 14 14 14 14 14 14 14 14 12 9 9
30 30 28 28 25 24 24 22 25 28 26 25 24 26 26 25 26 25 22 20 22 22 24 25 24 23 26 23 23 23 22 21 21 21 21 21 22 23 22 22 22 21 21 20 21 21 21 22 22 23 24 24 23 22 22 21 21 19 18 17 16 14 13 13 14 13 12 13 13 13 13 13 13 14 14 15 14 14 14 14 14 13 10 12 7 6
32 30 30 28 27 27 26 25 25 29 26 26 26 25 26 26 24 25 24 22 25 24 23 26 26 26 26 26 23 23 24 24 24 23 22 22 23 23 23 23 26 21 21 21 21 21 21 21 22 23 23 24 24 24 22 21 20 19 18 16 17 16 14 13 13 13 12 13 13 13 13 14 14 14 15 15 14 14 14 14 12 10 9 9 6 5
32 31 32 30 29 29 28 26 28 28 27 27 27 27 26 27 26 26 26 25 26 25 23 25 26 26 26 26 25 25 24 25 24 23 23 22 23 23 23 23 23 23 22 21 21 21 21 21 22 22 23 24 25 24 22 21 19 18 18 17 16 17 15 14 13 13 13 13 13 13 14 14 15 15 15 15 15 14 13 11 9 8 6 5 5 5
33 32 32 31 31 31 29 28 28 28 26 25 26 27 28 27 26 26 26 26 26 26 26 26 25 25 26 26 27 28 28 27 24 24 24 23 23 23 23 23 23 23 23 22 22 22 22 22 22 21 22 22 23 24 23 21 19 18 17 17 16 16 16 15 14 14 13 13 13 14 14 15 15 15 14 14 13 12 10 8 6 5 4 5 4 4
35 32 33 31 31 32 30 28 28 28 27 27 27 26 26 26 26 26 26 26 26 26 26 26 25 25 26 26 26 27 27 24 22 22 23 24 25 24 23 23 23 23 23 23 23 23 22 22 22 21 21 21 22 23 23 23 21 19 17 17 16 16 16 16 16 15 15 14 14 15 15 15 15 14 14 13 11 10 7 5 6 7 6 4 3 4
33 32 30 31 31 31 29 29 27 27 26 27 28 29 25 25 25 25 25 26 26 26 26 25 25 26 25 24 25 22 21 20 20 20 20 22 24 25 25 24 24 25 24 24 24 24 23 23 22 21 21 21 21 22 22 23 22 20 18 17 17 16 17 17 17 16 16 16 16 15 15 15 14 13 12 9 9 8 7 6 6 5 5 4 3 3
33 30 29 29 29 29 25 28 26 26 27 28 29 29 28 28 29 25 26 26 26 27 26 25 26 27 25 23 22 21 20 21 20 20 21 21 22 23 23 23 24 25 25 25 25 24 24 23 22 21 21 20 20 21 21 22 21 21 20 19 18 17 17 17 17 17 17 17 16 15 15 14 14 12 10 7 5 5 5 4 4 3 3 2 3 3
32 32 30 31 28 25 19 24 26 26 21 23 28 31 30 29 29 26 25 25 26 26 27 27 26 22 22 23 24 23 21 22 22 22 22 22 21 23 24 24 24 25 25 25 25 25 24 23 22 21 21 20 20 20 20 20 19 20 20 20 19 17 17 17 17 17 18 17 16 15 14 13 12 9 7 4 4 4 3 2 2 2 2 2 2 2
32 33 32 32 27 21 22 25 23 18 21 25 18 17 16 25 29 29 28 26 25 26 23 22 18 20 22 25 24 24 23 20 19 20 21 22 22 22 22 23 24 24 25 25 25 23 23 22 21 20 19 19 18 18 18 18 18 18 17 18 18 18 18 18 18 18 18 17 15 13 12 11 8 7 5 4 3 2 2 1 1 1 2 1 1 1
32 32 29 26 23 20 19 23 17 17 22 21 19 16 15 18 22 25 23 25 25 25 25 25 24 23 24 23 21 21 19 20 15 16 19 19 22 22 22 22 22 23 24 25 24 24 22 20 19 18 18 19 18 17 17 17 17 16 16 16 18 17 18 18 17 17 16 15 13 12 9 8 6 5 3 3 1 1 2 1 1 -0 0 -0 1 1
34 32 30 27 27 21 20 21 22 24 24 21 16 15 18 19 21 22 20 20 23 23 23 24 24 25 23 21 18 15 11 14 15 15 16 17 18 21 22 22 23 24 25 25 25 24 23 21 19 19 19 18 17 17 17 16 16 16 16 16 16 16 16 16 16 16 14 14 12 10 7 6 4 3 2 1 1 -1 -0 1 -1 -1 -1 -2 -0 0
32 31 31 29 26 27 21 19 17 19 20 23 22 19 17 17 21 21 19 18 18 18 24 24 24 24 23 20 17 13 13 14 9 10 14 15 15 16 19 22 23 24 24 24 24 23 23 23 22 21 20 19 18 17 17 16 16 16 16 15 14 15 14 15 16 15 14 13 10 7 4 4 3 2 1 -0 -1 -1 1 -1 -2 -2 -1 -2 -2 -1
30 31 30 31 27 25 22 22 20 19 19 22 22 14 14 14 17 16 17 14 22 17 22 23 22 22 22 17 13 13 12 4 9 12 15 16 13 14 16 19 20 19 20 23 22 22 19 20 22 21 20 19 18 18 17 16 16 16 16 15 14 14 14 14 15 13 12 11 6 3 2 2 1 1 -1 -2 0 -2 -1 -3 -3 -2 -2 -3 -3 -3
28 27 28 26 24 24 24 22 21 22 21 19 15 12 13 14 16 19 8 11 19 17 20 21 20 20 16 15 14 16 13 6 9 15 16 16 14 13 13 14 15 15 15 15 16 16 14 16 17 17 17 18 18 16 15 15 16 16 15 14 12 12 14 14 14 12 9 5 2 1 1 0 -0 -1 -2 -1 -3 -3 -3 -3 -4 -4 -3 -4 -5 -5
25 23 26 24 25 25 26 23 21 22 23 14 14 12 13 13 18 12 12 17 18 16 19 20 19 17 16 14 15 13 16 13 13 16 16 14 12 13 12 12 13 14 13 13 13 21 15 16 15 15 16 17 16 14 14 15 15 14 14 12 11 12 14 13 9 6 4 2 1 0 -1 -1 -2 -3 -4 -3 -5 -2 -4 -4 -2 -2 -6 -7 -7 -7
20 20 19 23 22 24 24 23 22 23 25 18 15 14 14 14 8 11 23 23 17 15 17 18 17 16 16 15 15 14 14 16 13 12 12 11 10 11 12 12 11 11 12 12 16 18 15 16 16 15 15 15 14 13 13 15 15 14 12 10 11 13 10 6 5 3 1 1 -1 -2 -3 -4 -5 -5 -6 -6 -6 -6 -6 -6 -6 -6 -7 -7 -8 -8
21 21 17 22 21 19 20 21 18 17 22 17 16 13 15 17 17 24 15 12 15 17 16 17 17 16 15 14 15 15 14 13 13 11 11 12 12 11 11 12 12 11 11 12 15 18 16 15 16 15 15 14 12 11 12 13 13 12 11 11 13 7 4 3 2 1 0 -1 -3 -4 -6 -6 -6 -6 -8 -8 -7 -8 -8 -8 -8 -9 -8 -9 -9 -9
24 19 15 21 24 18 20 17 18 24 19 16 17 15 17 21 22 16 17 14 14 15 16 16 16 16 15 13 13 14 14 13 12 12 12 12 12 12 13 13 12 11 11 11 11 13 16 14 14 15 15 12 10 9 12 13 14 12 10 12 4 3 2 1 0 -1 -2 -3 -5 -6 -7 -7 -8 -9 -9 -9 -9 -10 -10 -10 -10 -10 -10 -9 -9 -9
21 22 20 20 21 20 19 22 19 18 19 16 20 20 17 19 19 16 16 14 13 13 16 15 14 16 16 14 14 13 13 13 12 12 11 11 11 12 12 12 13 12 11 11 11 13 15 14 14 15 14 12 8 7 9 11 14 10 10 9 3 3 1 -1 -2 -3 -4 -5 -7 -8 -9 -11 -12 -12 -12 -12 -10 -9 -9 -10 -12 -10 -12 -10 -10 -10
12 18 17 17 15 13 10 20 16 15 16 16 17 20 17 17 16 16 16 13 13 13 15 13 13 15 16 15 14 13 13 12 12 12 11 11 11 11 12 12 12 13 12 11 10 12 14 14 12 10 13 11 7 6 6 8 12 11 11 4 3 1 -0 -2 -4 -5 -6 -8 -9 -10 -12 -11 -12 -12 -12 -11 -10 -10 -10 -10 -10 -9 -10 -10 -10 -11
10 11 11 13 18 6 9 14 12 14 16 16 16 17 17 16 16 15 14 12 12 14 15 13 12 14 15 16 14 13 13 12 12 12 12 12 11 11 11 12 12 13 13 13 13 12 11 10 13 12 12 12 9 6 5 4 7 9 3 2 2 0 -2 -3 -3 -4 -7 -8 -8 -11 -12 -10 -10 -11 -11 -12 -11 -11 -10 -10 -11 -10 -9 -10 -10 -11
16 11 12 11 10 7 7 10 12 11 14 16 16 16 15 15 16 16 15 15 14 14 14 15 12 13 15 14 14 13 12 12 12 12 12 12 12 12 12 12 12 12 12 14 13 11 9 10 13 13 12 12 12 7 4 3 3 2 1 1 0 -2 -4 -3 -4 -4 -6 -9 -10 -10 -12 -10 -8 -8 -10 -10 -11 -10 -12 -12 -11 -11 -10 -10 -10 -11
12 12 5 10 8 8 6 6 7 6 6 11 13 15 16 16 15 16 16 16 16 14 14 14 13 13 15 14 14 14 13 13 13 13 13 12 13 13 13 13 13 13 13 13 12 10 13 12 12 12 12 13 11 6 3 2 1 -2 0 1 -2 -4 -3 -3 -5 -7 -9 -11 -12 -10 -10 -11 -10 -9 -10 -11 -14 -13 -10 -11 -12 -11 -10 -10 -9 -8
8 9 10 8 3 5 6 5 6 1 2 6 9 12 14 15 16 16 15 15 15 15 15 14 14 13 14 14 15 15 15 14 13 13 13 13 13 13 13 14 14 14 14 13 11 10 11 11 12 12 12 13 8 5 3 1 -1 -3 -0 -2 -4 -4 -3 -5 -7 -10 -10 -11 -12 -12 -10 -10 -12 -13 -12 -12 -12 -14 -14 -7 4 -2 -8 -7 3 9
7 9 6 9 9 7 7 7 7 7 5 8 10 11 12 13 15 15 15 15 15 16 16 15 14 13 13 14 14 15 14 14 13 13 13 13 14 14 14 14 14 14 15 12 9 7 8 10 10 10 10 11 6 4 3 2 -2 -4 -3 -4 -4 -3 -3 -6 -6 -8 -9 -11 -11 -10 -10 -11 -12 -13 -13 -13 -13 -14 -12 -11 -10 5 10 11 11 13